Year,Month,Day,Hour,Minute,Value (Times are PST for temperature in C)
2018,06,20,00,00,17.20
2018,06,20,00,01,17.20
2018,06,20,00,02,17.20
2018,06,20,00,03,17.20
2018,06,20,00,04,17.20
2018,06,20,00,05,17.20
2018,06,20,00,06,17.10
2018,06,20,00,07,17.10
2018,06,20,00,08,17.10
2018,06,20,00,09,17.10
2018,06,20,00,10,17.10
2018,06,20,00,11,17.00
2018,06,20,00,12,17.00
2018,06,20,00,13,17.00
2018,06,20,00,14,16.90
2018,06,20,00,15,16.90
2018,06,20,00,16,16.90
2018,06,20,00,17,16.90
2018,06,20,00,18,16.90
2018,06,20,00,19,16.90
2018,06,20,00,20,16.90
2018,06,20,00,21,16.80
2018,06,20,00,22,16.80
2018,06,20,00,23,16.80
2018,06,20,00,24,16.80
2018,06,20,00,25,16.80
2018,06,20,00,26,16.80
2018,06,20,00,27,16.70
2018,06,20,00,28,16.70
2018,06,20,00,29,16.70
2018,06,20,00,30,16.70
2018,06,20,00,31,16.70
2018,06,20,00,32,16.70
2018,06,20,00,33,16.70
2018,06,20,00,34,16.70
2018,06,20,00,35,16.70
2018,06,20,00,36,16.70
2018,06,20,00,37,16.70
2018,06,20,00,38,16.70
2018,06,20,00,39,16.70
2018,06,20,00,40,16.60
2018,06,20,00,41,16.60
2018,06,20,00,42,16.60
2018,06,20,00,43,16.60
2018,06,20,00,44,16.60
2018,06,20,00,45,16.50
2018,06,20,00,46,16.50
2018,06,20,00,47,16.50
2018,06,20,00,48,16.50
2018,06,20,00,49,16.40
2018,06,20,00,50,16.40
2018,06,20,00,51,16.40
2018,06,20,00,52,16.40
2018,06,20,00,53,16.40
2018,06,20,00,54,16.30
2018,06,20,00,55,16.30
2018,06,20,00,56,16.30
2018,06,20,00,57,16.30
2018,06,20,00,58,16.30
2018,06,20,00,59,16.20
2018,06,20,01,00,16.20
2018,06,20,01,01,16.20
2018,06,20,01,02,16.10
2018,06,20,01,03,16.10
2018,06,20,01,04,16.10
2018,06,20,01,05,16.00
2018,06,20,01,06,16.00
2018,06,20,01,07,16.00
2018,06,20,01,08,15.90
2018,06,20,01,09,15.90
2018,06,20,01,10,15.90
2018,06,20,01,11,15.90
2018,06,20,01,12,15.80
2018,06,20,01,13,15.80
2018,06,20,01,14,15.80
2018,06,20,01,15,15.80
2018,06,20,01,16,15.70
2018,06,20,01,17,15.70
2018,06,20,01,18,15.70
2018,06,20,01,19,15.70
2018,06,20,01,20,15.60
2018,06,20,01,21,15.60
2018,06,20,01,22,15.60
2018,06,20,01,23,15.60
2018,06,20,01,24,15.60
2018,06,20,01,25,15.50
2018,06,20,01,26,15.50
2018,06,20,01,27,15.50
2018,06,20,01,28,15.50
2018,06,20,01,29,15.40
2018,06,20,01,30,15.40
2018,06,20,01,31,15.40
2018,06,20,01,32,15.40
2018,06,20,01,33,15.40
2018,06,20,01,34,15.40
2018,06,20,01,35,15.40
2018,06,20,01,36,15.40
2018,06,20,01,37,15.30
2018,06,20,01,38,15.30
2018,06,20,01,39,15.30
2018,06,20,01,40,15.30
2018,06,20,01,41,15.30
2018,06,20,01,42,15.30
2018,06,20,01,43,15.30
2018,06,20,01,44,15.30
2018,06,20,01,45,15.30
2018,06,20,01,46,15.30
2018,06,20,01,47,15.30
2018,06,20,01,48,15.30
2018,06,20,01,49,15.30
2018,06,20,01,50,15.20
2018,06,20,01,51,15.20
2018,06,20,01,52,15.20
2018,06,20,01,53,15.20
2018,06,20,01,54,15.20
2018,06,20,01,55,15.10
2018,06,20,01,56,15.10
2018,06,20,01,57,15.10
2018,06,20,01,58,15.00
2018,06,20,01,59,15.00
2018,06,20,02,00,15.00
2018,06,20,02,01,14.90
2018,06,20,02,02,14.90
2018,06,20,02,03,14.90
2018,06,20,02,04,14.90
2018,06,20,02,05,14.90
2018,06,20,02,06,14.90
2018,06,20,02,07,14.80
2018,06,20,02,08,14.80
2018,06,20,02,09,14.80
2018,06,20,02,10,14.80
2018,06,20,02,11,14.80
2018,06,20,02,12,14.80
2018,06,20,02,13,14.80
2018,06,20,02,14,14.70
2018,06,20,02,15,14.70
2018,06,20,02,16,14.70
2018,06,20,02,17,14.70
2018,06,20,02,18,14.70
2018,06,20,02,19,14.70
2018,06,20,02,20,14.70
2018,06,20,02,21,14.70
2018,06,20,02,22,14.70
2018,06,20,02,23,14.70
2018,06,20,02,24,14.60
2018,06,20,02,25,14.60
2018,06,20,02,26,14.60
2018,06,20,02,27,14.60
2018,06,20,02,28,14.60
2018,06,20,02,29,14.50
2018,06,20,02,30,14.50
2018,06,20,02,31,14.50
2018,06,20,02,32,14.50
2018,06,20,02,33,14.40
2018,06,20,02,34,14.40
2018,06,20,02,35,14.40
2018,06,20,02,36,14.40
2018,06,20,02,37,14.40
2018,06,20,02,38,14.30
2018,06,20,02,39,14.30
2018,06,20,02,40,14.30
2018,06,20,02,41,14.30
2018,06,20,02,42,14.30
2018,06,20,02,43,14.20
2018,06,20,02,44,14.20
2018,06,20,02,45,14.20
2018,06,20,02,46,14.10
2018,06,20,02,47,14.10
2018,06,20,02,48,14.10
2018,06,20,02,49,14.10
2018,06,20,02,50,14.00
2018,06,20,02,51,14.00
2018,06,20,02,52,14.00
2018,06,20,02,53,13.90
2018,06,20,02,54,13.90
2018,06,20,02,55,13.90
2018,06,20,02,56,13.90
2018,06,20,02,57,13.90
2018,06,20,02,58,13.90
2018,06,20,02,59,13.80
2018,06,20,03,00,13.90
2018,06,20,03,01,13.90
2018,06,20,03,02,13.90
2018,06,20,03,03,13.90
2018,06,20,03,04,13.90
2018,06,20,03,05,13.90
2018,06,20,03,06,13.90
2018,06,20,03,07,13.90
2018,06,20,03,08,13.90
2018,06,20,03,09,13.90
2018,06,20,03,10,13.90
2018,06,20,03,11,14.00
2018,06,20,03,12,14.00
2018,06,20,03,13,14.00
2018,06,20,03,14,14.00
2018,06,20,03,15,14.00
2018,06,20,03,16,14.00
2018,06,20,03,17,14.00
2018,06,20,03,18,14.00
2018,06,20,03,19,14.10
2018,06,20,03,20,14.10
2018,06,20,03,21,14.10
2018,06,20,03,22,14.10
2018,06,20,03,23,14.20
2018,06,20,03,24,14.20
2018,06,20,03,25,14.20
2018,06,20,03,26,14.10
2018,06,20,03,27,14.10
2018,06,20,03,28,14.00
2018,06,20,03,29,14.00
2018,06,20,03,30,13.90
2018,06,20,03,31,13.90
2018,06,20,03,32,13.80
2018,06,20,03,33,13.80
2018,06,20,03,34,13.80
2018,06,20,03,35,13.80
2018,06,20,03,36,13.80
2018,06,20,03,37,13.70
2018,06,20,03,38,13.70
2018,06,20,03,39,13.70
2018,06,20,03,40,13.70
2018,06,20,03,41,13.70
2018,06,20,03,42,13.70
2018,06,20,03,43,13.70
2018,06,20,03,44,13.70
2018,06,20,03,45,13.70
2018,06,20,03,46,13.70
2018,06,20,03,47,13.70
2018,06,20,03,48,13.70
2018,06,20,03,49,13.70
2018,06,20,03,50,13.70
2018,06,20,03,51,13.70
2018,06,20,03,52,13.70
2018,06,20,03,53,13.80
2018,06,20,03,54,13.80
2018,06,20,03,55,13.80
2018,06,20,03,56,13.80
2018,06,20,03,57,13.90
2018,06,20,03,58,13.90
2018,06,20,03,59,13.90
2018,06,20,04,00,13.90
2018,06,20,04,01,13.90
2018,06,20,04,02,13.90
2018,06,20,04,03,13.90
2018,06,20,04,04,13.90
2018,06,20,04,05,13.90
2018,06,20,04,06,13.90
2018,06,20,04,07,13.90
2018,06,20,04,08,13.90
2018,06,20,04,09,13.90
2018,06,20,04,10,13.90
2018,06,20,04,11,13.90
2018,06,20,04,12,13.90
2018,06,20,04,13,13.90
2018,06,20,04,14,13.90
2018,06,20,04,15,13.90
2018,06,20,04,16,13.80
2018,06,20,04,17,13.80
2018,06,20,04,18,13.80
2018,06,20,04,19,13.80
2018,06,20,04,20,13.80
2018,06,20,04,21,13.70
2018,06,20,04,22,13.70
2018,06,20,04,23,13.70
2018,06,20,04,24,13.70
2018,06,20,04,25,13.70
2018,06,20,04,26,13.80
2018,06,20,04,27,13.70
2018,06,20,04,28,13.70
2018,06,20,04,29,13.70
2018,06,20,04,30,13.70
2018,06,20,04,31,13.70
2018,06,20,04,32,13.70
2018,06,20,04,33,13.60
2018,06,20,04,34,13.60
2018,06,20,04,35,13.60
2018,06,20,04,36,13.60
2018,06,20,04,37,13.60
2018,06,20,04,38,13.60
2018,06,20,04,39,13.60
2018,06,20,04,40,13.60
2018,06,20,04,41,13.60
2018,06,20,04,42,13.50
2018,06,20,04,43,13.50
2018,06,20,04,44,13.50
2018,06,20,04,45,13.60
2018,06,20,04,46,13.60
2018,06,20,04,47,13.50
2018,06,20,04,48,13.50
2018,06,20,04,49,13.50
2018,06,20,04,50,13.60
2018,06,20,04,51,13.60
2018,06,20,04,52,13.60
2018,06,20,04,53,13.60
2018,06,20,04,54,13.60
2018,06,20,04,55,13.50
2018,06,20,04,56,13.60
2018,06,20,04,57,13.50
2018,06,20,04,58,13.50
2018,06,20,04,59,13.50
2018,06,20,05,00,13.50
2018,06,20,05,01,13.50
2018,06,20,05,02,13.50
2018,06,20,05,03,13.60
2018,06,20,05,04,13.50
2018,06,20,05,05,13.60
2018,06,20,05,06,13.60
2018,06,20,05,07,13.60
2018,06,20,05,08,13.60
2018,06,20,05,09,13.60
2018,06,20,05,10,13.60
2018,06,20,05,11,13.60
2018,06,20,05,12,13.60
2018,06,20,05,13,13.60
2018,06,20,05,14,13.60
2018,06,20,05,15,13.60
2018,06,20,05,16,13.60
2018,06,20,05,17,13.60
2018,06,20,05,18,13.60
2018,06,20,05,19,13.60
2018,06,20,05,20,13.60
2018,06,20,05,21,13.60
2018,06,20,05,22,13.60
2018,06,20,05,23,13.60
2018,06,20,05,24,13.60
2018,06,20,05,25,13.60
2018,06,20,05,26,13.60
2018,06,20,05,27,13.60
2018,06,20,05,28,13.60
2018,06,20,05,29,13.60
2018,06,20,05,30,13.60
2018,06,20,05,31,13.60
2018,06,20,05,32,13.70
2018,06,20,05,33,13.70
2018,06,20,05,34,13.70
2018,06,20,05,35,13.70
2018,06,20,05,36,13.80
2018,06,20,05,37,13.80
2018,06,20,05,38,13.80
2018,06,20,05,39,13.80
2018,06,20,05,40,13.80
2018,06,20,05,41,13.90
2018,06,20,05,42,13.90
2018,06,20,05,43,13.90
2018,06,20,05,44,13.90
2018,06,20,05,45,14.00
2018,06,20,05,46,14.00
2018,06,20,05,47,14.10
2018,06,20,05,48,14.10
2018,06,20,05,49,14.10
2018,06,20,05,50,14.20
2018,06,20,05,51,14.20
2018,06,20,05,52,14.30
2018,06,20,05,53,14.30
2018,06,20,05,54,14.40
2018,06,20,05,55,14.40
2018,06,20,05,56,14.50
2018,06,20,05,57,14.60
2018,06,20,05,58,14.60
2018,06,20,05,59,14.60
2018,06,20,06,00,14.60
2018,06,20,06,01,14.70
2018,06,20,06,02,14.70
2018,06,20,06,03,14.70
2018,06,20,06,04,14.70
2018,06,20,06,05,14.70
2018,06,20,06,06,14.80
2018,06,20,06,07,14.80
2018,06,20,06,08,14.80
2018,06,20,06,09,14.90
2018,06,20,06,10,14.90
2018,06,20,06,11,14.90
2018,06,20,06,12,14.90
2018,06,20,06,13,14.90
2018,06,20,06,14,15.00
2018,06,20,06,15,15.00
2018,06,20,06,16,15.00
2018,06,20,06,17,15.00
2018,06,20,06,18,15.00
2018,06,20,06,19,15.10
2018,06,20,06,20,15.10
2018,06,20,06,21,15.10
2018,06,20,06,22,15.10
2018,06,20,06,23,15.10
2018,06,20,06,24,15.10
2018,06,20,06,25,15.20
2018,06,20,06,26,15.20
2018,06,20,06,27,15.20
2018,06,20,06,28,15.20
2018,06,20,06,29,15.20
2018,06,20,06,30,15.30
2018,06,20,06,31,15.30
2018,06,20,06,32,15.30
2018,06,20,06,33,15.30
2018,06,20,06,34,15.30
2018,06,20,06,35,15.30
2018,06,20,06,36,15.30
2018,06,20,06,37,15.30
2018,06,20,06,38,15.30
2018,06,20,06,39,15.40
2018,06,20,06,40,15.40
2018,06,20,06,41,15.40
2018,06,20,06,42,15.40
2018,06,20,06,43,15.50
2018,06,20,06,44,15.50
2018,06,20,06,45,15.50
2018,06,20,06,46,15.50
2018,06,20,06,47,15.60
2018,06,20,06,48,15.60
2018,06,20,06,49,15.60
2018,06,20,06,50,15.60
2018,06,20,06,51,15.60
2018,06,20,06,52,15.70
2018,06,20,06,53,15.70
2018,06,20,06,54,15.70
2018,06,20,06,55,15.80
2018,06,20,06,56,15.80
2018,06,20,06,57,15.80
2018,06,20,06,58,15.80
2018,06,20,06,59,15.90
2018,06,20,07,00,15.90
2018,06,20,07,01,15.90
2018,06,20,07,02,15.90
2018,06,20,07,03,16.00
2018,06,20,07,04,16.00
2018,06,20,07,05,16.00
2018,06,20,07,06,16.10
2018,06,20,07,07,16.10
2018,06,20,07,08,16.10
2018,06,20,07,09,16.10
2018,06,20,07,10,16.10
2018,06,20,07,11,16.10
2018,06,20,07,12,16.10
2018,06,20,07,13,16.10
2018,06,20,07,14,16.10
2018,06,20,07,15,16.10
2018,06,20,07,16,16.10
2018,06,20,07,17,16.10
2018,06,20,07,18,16.10
2018,06,20,07,19,16.10
2018,06,20,07,20,16.10
2018,06,20,07,21,16.10
2018,06,20,07,22,16.10
2018,06,20,07,23,16.10
2018,06,20,07,24,16.10
2018,06,20,07,25,16.10
2018,06,20,07,26,16.10
2018,06,20,07,27,16.10
2018,06,20,07,28,16.10
2018,06,20,07,29,16.10
2018,06,20,07,30,16.10
2018,06,20,07,31,16.10
2018,06,20,07,32,16.10
2018,06,20,07,33,16.10
2018,06,20,07,34,16.10
2018,06,20,07,35,16.10
2018,06,20,07,36,16.10
2018,06,20,07,37,16.10
2018,06,20,07,38,16.10
2018,06,20,07,39,16.10
2018,06,20,07,40,16.10
2018,06,20,07,41,16.10
2018,06,20,07,42,16.10
2018,06,20,07,43,16.10
2018,06,20,07,44,16.10
2018,06,20,07,45,16.10
2018,06,20,07,46,16.10
2018,06,20,07,47,16.10
2018,06,20,07,48,16.10
2018,06,20,07,49,16.10
2018,06,20,07,50,16.10
2018,06,20,07,51,16.10
2018,06,20,07,52,16.10
2018,06,20,07,53,16.10
2018,06,20,07,54,16.10
2018,06,20,07,55,16.10
2018,06,20,07,56,16.10
2018,06,20,07,57,16.10
2018,06,20,07,58,16.10
2018,06,20,07,59,16.10
2018,06,20,08,00,16.20
2018,06,20,08,01,16.20
2018,06,20,08,02,16.20
2018,06,20,08,03,16.20
2018,06,20,08,04,16.20
2018,06,20,08,05,16.30
2018,06,20,08,06,16.30
2018,06,20,08,07,16.30
2018,06,20,08,08,16.30
2018,06,20,08,09,16.30
2018,06,20,08,10,16.40
2018,06,20,08,11,16.40
2018,06,20,08,12,16.40
2018,06,20,08,13,16.40
2018,06,20,08,14,16.50
2018,06,20,08,15,16.50
2018,06,20,08,16,16.60
2018,06,20,08,17,16.60
2018,06,20,08,18,16.60
2018,06,20,08,19,16.70
2018,06,20,08,20,16.70
2018,06,20,08,21,16.70
2018,06,20,08,22,16.80
2018,06,20,08,23,16.80
2018,06,20,08,24,16.80
2018,06,20,08,25,16.80
2018,06,20,08,26,16.90
2018,06,20,08,27,16.90
2018,06,20,08,28,17.00
2018,06,20,08,29,17.00
2018,06,20,08,30,17.10
2018,06,20,08,31,17.10
2018,06,20,08,32,17.10
2018,06,20,08,33,17.20
2018,06,20,08,34,17.20
2018,06,20,08,35,17.30
2018,06,20,08,36,17.30
2018,06,20,08,37,17.40
2018,06,20,08,38,17.40
2018,06,20,08,39,17.50
2018,06,20,08,40,17.50
2018,06,20,08,41,17.60
2018,06,20,08,42,17.60
2018,06,20,08,43,17.70
2018,06,20,08,44,17.70
2018,06,20,08,45,17.70
2018,06,20,08,46,17.70
2018,06,20,08,47,17.80
2018,06,20,08,48,17.80
2018,06,20,08,49,17.80
2018,06,20,08,50,17.80
2018,06,20,08,51,17.80
2018,06,20,08,52,17.80
2018,06,20,08,53,17.90
2018,06,20,08,54,18.00
2018,06,20,08,55,18.00
2018,06,20,08,56,18.10
2018,06,20,08,57,18.20
2018,06,20,08,58,18.20
2018,06,20,08,59,18.30
2018,06,20,09,00,18.40
2018,06,20,09,01,18.50
2018,06,20,09,02,18.60
2018,06,20,09,03,18.70
2018,06,20,09,04,18.70
2018,06,20,09,05,18.80
2018,06,20,09,06,18.80
2018,06,20,09,07,18.90
2018,06,20,09,08,19.00
2018,06,20,09,09,19.10
2018,06,20,09,10,19.20
2018,06,20,09,11,19.30
2018,06,20,09,12,19.40
2018,06,20,09,13,19.40
2018,06,20,09,14,19.50
2018,06,20,09,15,19.60
2018,06,20,09,16,19.60
2018,06,20,09,17,19.80
2018,06,20,09,18,19.90
2018,06,20,09,19,20.00
2018,06,20,09,20,20.10
2018,06,20,09,21,20.20
2018,06,20,09,22,20.30
2018,06,20,09,23,20.40
2018,06,20,09,24,20.50
2018,06,20,09,25,20.60
2018,06,20,09,26,20.70
2018,06,20,09,27,20.80
2018,06,20,09,28,20.90
2018,06,20,09,29,21.00
2018,06,20,09,30,21.10
2018,06,20,09,31,21.20
2018,06,20,09,32,21.30
2018,06,20,09,33,21.30
2018,06,20,09,34,21.40
2018,06,20,09,35,21.40
2018,06,20,09,36,21.50
2018,06,20,09,37,21.60
2018,06,20,09,38,21.70
2018,06,20,09,39,21.80
2018,06,20,09,40,21.80
2018,06,20,09,41,21.90
2018,06,20,09,42,22.00
2018,06,20,09,43,22.00
2018,06,20,09,44,22.10
2018,06,20,09,45,22.10
2018,06,20,09,46,22.10
2018,06,20,09,47,22.10
2018,06,20,09,48,22.10
2018,06,20,09,49,22.00
2018,06,20,09,50,22.00
2018,06,20,09,51,21.90
2018,06,20,09,52,21.90
2018,06,20,09,53,21.90
2018,06,20,09,54,21.90
2018,06,20,09,55,21.90
2018,06,20,09,56,21.90
2018,06,20,09,57,21.90
2018,06,20,09,58,22.00
2018,06,20,09,59,22.00
2018,06,20,10,00,22.00
2018,06,20,10,01,21.90
2018,06,20,10,02,21.90
2018,06,20,10,03,22.00
2018,06,20,10,04,22.10
2018,06,20,10,05,22.10
2018,06,20,10,06,22.20
2018,06,20,10,07,22.20
2018,06,20,10,08,22.30
2018,06,20,10,09,22.40
2018,06,20,10,10,22.40
2018,06,20,10,11,22.50
2018,06,20,10,12,22.50
2018,06,20,10,13,22.50
2018,06,20,10,14,22.60
2018,06,20,10,15,22.70
2018,06,20,10,16,22.80
2018,06,20,10,17,22.80
2018,06,20,10,18,22.90
2018,06,20,10,19,23.00
2018,06,20,10,20,23.10
2018,06,20,10,21,23.20
2018,06,20,10,22,23.20
2018,06,20,10,23,23.20
2018,06,20,10,24,23.20
2018,06,20,10,25,23.20
2018,06,20,10,26,23.20
2018,06,20,10,27,23.20
2018,06,20,10,28,23.30
2018,06,20,10,29,23.30
2018,06,20,10,30,23.40
2018,06,20,10,31,23.50
2018,06,20,10,32,23.60
2018,06,20,10,33,23.80
2018,06,20,10,34,23.90
2018,06,20,10,35,24.10
2018,06,20,10,36,24.30
2018,06,20,10,37,24.40
2018,06,20,10,38,24.60
2018,06,20,10,39,24.70
2018,06,20,10,40,24.80
2018,06,20,10,41,24.80
2018,06,20,10,42,24.80
2018,06,20,10,43,24.80
2018,06,20,10,44,24.80
2018,06,20,10,45,24.70
2018,06,20,10,46,24.60
2018,06,20,10,47,24.40
2018,06,20,10,48,24.40
2018,06,20,10,49,24.30
2018,06,20,10,50,24.30
2018,06,20,10,51,24.30
2018,06,20,10,52,24.40
2018,06,20,10,53,24.40
2018,06,20,10,54,24.50
2018,06,20,10,55,24.60
2018,06,20,10,56,24.50
2018,06,20,10,57,24.50
2018,06,20,10,58,24.40
2018,06,20,10,59,24.30
2018,06,20,11,00,24.30
2018,06,20,11,01,24.20
2018,06,20,11,02,24.20
2018,06,20,11,03,24.30
2018,06,20,11,04,24.30
2018,06,20,11,05,24.30
2018,06,20,11,06,24.30
2018,06,20,11,07,24.20
2018,06,20,11,08,24.20
2018,06,20,11,09,24.10
2018,06,20,11,10,24.00
2018,06,20,11,11,23.90
2018,06,20,11,12,24.00
2018,06,20,11,13,24.00
2018,06,20,11,14,24.10
2018,06,20,11,15,24.10
2018,06,20,11,16,24.10
2018,06,20,11,17,24.10
2018,06,20,11,18,24.00
2018,06,20,11,19,23.90
2018,06,20,11,20,23.80
2018,06,20,11,21,23.80
2018,06,20,11,22,23.70
2018,06,20,11,23,23.70
2018,06,20,11,24,23.70
2018,06,20,11,25,23.70
2018,06,20,11,26,23.60
2018,06,20,11,27,23.60
2018,06,20,11,28,23.50
2018,06,20,11,29,23.40
2018,06,20,11,30,23.40
2018,06,20,11,31,23.40
2018,06,20,11,32,23.40
2018,06,20,11,33,23.40
2018,06,20,11,34,23.40
2018,06,20,11,35,23.50
2018,06,20,11,36,23.60
2018,06,20,11,37,23.70
2018,06,20,11,38,23.60
2018,06,20,11,39,23.60
2018,06,20,11,40,23.50
2018,06,20,11,41,23.50
2018,06,20,11,42,23.40
2018,06,20,11,43,23.40
2018,06,20,11,44,23.40
2018,06,20,11,45,23.50
2018,06,20,11,46,23.50
2018,06,20,11,47,23.60
2018,06,20,11,48,23.70
2018,06,20,11,49,23.60
2018,06,20,11,50,23.60
2018,06,20,11,51,23.60
2018,06,20,11,52,23.60
2018,06,20,11,53,23.80
2018,06,20,11,54,23.90
2018,06,20,11,55,23.90
2018,06,20,11,56,23.90
2018,06,20,11,57,24.10
2018,06,20,11,58,24.20
2018,06,20,11,59,24.30
2018,06,20,12,00,24.40
2018,06,20,12,01,24.30
2018,06,20,12,02,24.30
2018,06,20,12,03,24.30
2018,06,20,12,04,24.40
2018,06,20,12,05,24.60
2018,06,20,12,06,24.70
2018,06,20,12,07,24.90
2018,06,20,12,08,25.00
2018,06,20,12,09,25.10
2018,06,20,12,10,25.20
2018,06,20,12,11,25.30
2018,06,20,12,12,25.40
2018,06,20,12,13,25.50
2018,06,20,12,14,25.60
2018,06,20,12,15,25.70
2018,06,20,12,16,25.70
2018,06,20,12,17,25.60
2018,06,20,12,18,25.50
2018,06,20,12,19,25.50
2018,06,20,12,20,25.50
2018,06,20,12,21,25.50
2018,06,20,12,22,25.50
2018,06,20,12,23,25.50
2018,06,20,12,24,25.60
2018,06,20,12,25,25.60
2018,06,20,12,26,25.50
2018,06,20,12,27,25.50
2018,06,20,12,28,25.60
2018,06,20,12,29,25.70
2018,06,20,12,30,25.70
2018,06,20,12,31,25.80
2018,06,20,12,32,25.80
2018,06,20,12,33,25.80
2018,06,20,12,34,25.90
2018,06,20,12,35,25.80
2018,06,20,12,36,25.80
2018,06,20,12,37,25.80
2018,06,20,12,38,25.90
2018,06,20,12,39,26.00
2018,06,20,12,40,26.10
2018,06,20,12,41,26.20
2018,06,20,12,42,26.30
2018,06,20,12,43,26.30
2018,06,20,12,44,26.40
2018,06,20,12,45,26.60
2018,06,20,12,46,26.70
2018,06,20,12,47,26.70
2018,06,20,12,48,26.60
2018,06,20,12,49,26.60
2018,06,20,12,50,26.60
2018,06,20,12,51,26.50
2018,06,20,12,52,26.40
2018,06,20,12,53,26.40
2018,06,20,12,54,26.20
2018,06,20,12,55,26.20
2018,06,20,12,56,26.20
2018,06,20,12,57,26.20
2018,06,20,12,58,26.20
2018,06,20,12,59,26.30
2018,06,20,13,00,26.40
2018,06,20,13,01,26.40
2018,06,20,13,02,26.30
2018,06,20,13,03,26.20
2018,06,20,13,04,26.10
2018,06,20,13,05,26.10
2018,06,20,13,06,26.10
2018,06,20,13,07,26.20
2018,06,20,13,08,26.30
2018,06,20,13,09,26.40
2018,06,20,13,10,26.40
2018,06,20,13,11,26.40
2018,06,20,13,12,26.40
2018,06,20,13,13,26.50
2018,06,20,13,14,26.60
2018,06,20,13,15,26.50
2018,06,20,13,16,26.50
2018,06,20,13,17,26.50
2018,06,20,13,18,26.60
2018,06,20,13,19,26.50
2018,06,20,13,20,26.50
2018,06,20,13,21,26.50
2018,06,20,13,22,26.50
2018,06,20,13,23,26.40
2018,06,20,13,24,26.30
2018,06,20,13,25,26.30
2018,06,20,13,26,26.40
2018,06,20,13,27,26.50
2018,06,20,13,28,26.70
2018,06,20,13,29,26.80
2018,06,20,13,30,26.80
2018,06,20,13,31,26.80
2018,06,20,13,32,26.80
2018,06,20,13,33,26.80
2018,06,20,13,34,26.70
2018,06,20,13,35,26.60
2018,06,20,13,36,26.50
2018,06,20,13,37,26.40
2018,06,20,13,38,26.30
2018,06,20,13,39,26.20
2018,06,20,13,40,26.10
2018,06,20,13,41,26.10
2018,06,20,13,42,26.10
2018,06,20,13,43,26.10
2018,06,20,13,44,26.20
2018,06,20,13,45,26.30
2018,06,20,13,46,26.30
2018,06,20,13,47,26.40
2018,06,20,13,48,26.50
2018,06,20,13,49,26.60
2018,06,20,13,50,26.70
2018,06,20,13,51,26.80
2018,06,20,13,52,26.70
2018,06,20,13,53,26.60
2018,06,20,13,54,26.50
2018,06,20,13,55,26.50
2018,06,20,13,56,26.50
2018,06,20,13,57,26.50
2018,06,20,13,58,26.50
2018,06,20,13,59,26.60
2018,06,20,14,00,26.70
2018,06,20,14,01,26.70
2018,06,20,14,02,26.70
2018,06,20,14,03,26.80
2018,06,20,14,04,26.80
2018,06,20,14,05,26.80
2018,06,20,14,06,26.70
2018,06,20,14,07,26.70
2018,06,20,14,08,26.60
2018,06,20,14,09,26.60
2018,06,20,14,10,26.50
2018,06,20,14,11,26.40
2018,06,20,14,12,26.40
2018,06,20,14,13,26.40
2018,06,20,14,14,26.30
2018,06,20,14,15,26.30
2018,06,20,14,16,26.30
2018,06,20,14,17,26.30
2018,06,20,14,18,26.30
2018,06,20,14,19,26.30
2018,06,20,14,20,26.20
2018,06,20,14,21,26.10
2018,06,20,14,22,26.10
2018,06,20,14,23,26.10
2018,06,20,14,24,26.10
2018,06,20,14,25,26.20
2018,06,20,14,26,26.30
2018,06,20,14,27,26.40
2018,06,20,14,28,26.40
2018,06,20,14,29,26.30
2018,06,20,14,30,26.30
2018,06,20,14,31,26.30
2018,06,20,14,32,26.30
2018,06,20,14,33,26.30
2018,06,20,14,34,26.30
2018,06,20,14,35,26.30
2018,06,20,14,36,26.40
2018,06,20,14,37,26.50
2018,06,20,14,38,26.60
2018,06,20,14,39,26.70
2018,06,20,14,40,26.80
2018,06,20,14,41,26.80
2018,06,20,14,42,26.80
2018,06,20,14,43,26.90
2018,06,20,14,44,27.00
2018,06,20,14,45,27.00
2018,06,20,14,46,27.00
2018,06,20,14,47,27.00
2018,06,20,14,48,27.00
2018,06,20,14,49,26.90
2018,06,20,14,50,26.80
2018,06,20,14,51,26.80
2018,06,20,14,52,26.80
2018,06,20,14,53,26.80
2018,06,20,14,54,26.90
2018,06,20,14,55,26.90
2018,06,20,14,56,27.00
2018,06,20,14,57,27.10
2018,06,20,14,58,27.10
2018,06,20,14,59,27.10
2018,06,20,15,00,27.00
2018,06,20,15,01,27.00
2018,06,20,15,02,26.90
2018,06,20,15,03,26.90
2018,06,20,15,04,26.90
2018,06,20,15,05,26.80
2018,06,20,15,06,26.80
2018,06,20,15,07,26.80
2018,06,20,15,08,26.80
2018,06,20,15,09,26.80
2018,06,20,15,10,26.80
2018,06,20,15,11,26.90
2018,06,20,15,12,27.00
2018,06,20,15,13,27.10
2018,06,20,15,14,27.10
2018,06,20,15,15,27.10
2018,06,20,15,16,27.10
2018,06,20,15,17,27.00
2018,06,20,15,18,27.00
2018,06,20,15,19,27.00
2018,06,20,15,20,27.00
2018,06,20,15,21,27.10
2018,06,20,15,22,27.30
2018,06,20,15,23,27.40
2018,06,20,15,24,27.50
2018,06,20,15,25,27.60
2018,06,20,15,26,27.70
2018,06,20,15,27,27.80
2018,06,20,15,28,27.90
2018,06,20,15,29,27.90
2018,06,20,15,30,27.90
2018,06,20,15,31,27.90
2018,06,20,15,32,27.80
2018,06,20,15,33,27.90
2018,06,20,15,34,27.90
2018,06,20,15,35,28.00
2018,06,20,15,36,28.10
2018,06,20,15,37,28.10
2018,06,20,15,38,28.20
2018,06,20,15,39,28.20
2018,06,20,15,40,28.20
2018,06,20,15,41,28.10
2018,06,20,15,42,28.00
2018,06,20,15,43,27.90
2018,06,20,15,44,27.90
2018,06,20,15,45,27.90
2018,06,20,15,46,27.90
2018,06,20,15,47,27.80
2018,06,20,15,48,27.80
2018,06,20,15,49,27.70
2018,06,20,15,50,27.70
2018,06,20,15,51,27.60
2018,06,20,15,52,27.60
2018,06,20,15,53,27.60
2018,06,20,15,54,27.60
2018,06,20,15,55,27.60
2018,06,20,15,56,27.60
2018,06,20,15,57,27.70
2018,06,20,15,58,27.80
2018,06,20,15,59,27.80
2018,06,20,16,00,27.90
2018,06,20,16,01,27.90
2018,06,20,16,02,27.90
2018,06,20,16,03,28.00
2018,06,20,16,04,28.00
2018,06,20,16,05,28.00
2018,06,20,16,06,28.10
2018,06,20,16,07,28.10
2018,06,20,16,08,28.20
2018,06,20,16,09,28.40
2018,06,20,16,10,28.50
2018,06,20,16,11,28.60
2018,06,20,16,12,28.70
2018,06,20,16,13,28.80
2018,06,20,16,14,28.70
2018,06,20,16,15,28.70
2018,06,20,16,16,28.70
2018,06,20,16,17,28.70
2018,06,20,16,18,28.70
2018,06,20,16,19,28.80
2018,06,20,16,20,29.00
2018,06,20,16,21,29.10
2018,06,20,16,22,29.30
2018,06,20,16,23,29.40
2018,06,20,16,24,29.50
2018,06,20,16,25,29.70
2018,06,20,16,26,29.80
2018,06,20,16,27,29.90
2018,06,20,16,28,30.00
2018,06,20,16,29,30.10
2018,06,20,16,30,30.20
2018,06,20,16,31,30.20
2018,06,20,16,32,30.30
2018,06,20,16,33,30.40
2018,06,20,16,34,30.40
2018,06,20,16,35,30.30
2018,06,20,16,36,30.20
2018,06,20,16,37,30.00
2018,06,20,16,38,29.90
2018,06,20,16,39,29.90
2018,06,20,16,40,29.90
2018,06,20,16,41,29.90
2018,06,20,16,42,29.80
2018,06,20,16,43,29.80
2018,06,20,16,44,29.70
2018,06,20,16,45,29.70
2018,06,20,16,46,29.70
2018,06,20,16,47,29.70
2018,06,20,16,48,29.70
2018,06,20,16,49,29.60
2018,06,20,16,50,29.50
2018,06,20,16,51,29.50
2018,06,20,16,52,29.50
2018,06,20,16,53,29.60
2018,06,20,16,54,29.60
2018,06,20,16,55,29.60
2018,06,20,16,56,29.60
2018,06,20,16,57,29.50
2018,06,20,16,58,29.50
2018,06,20,16,59,29.40
2018,06,20,17,00,29.40
2018,06,20,17,01,29.40
2018,06,20,17,02,29.30
2018,06,20,17,03,29.30
2018,06,20,17,04,29.30
2018,06,20,17,05,29.30
2018,06,20,17,06,29.30
2018,06,20,17,07,29.30
2018,06,20,17,08,29.30
2018,06,20,17,09,29.30
2018,06,20,17,10,29.30
2018,06,20,17,11,29.30
2018,06,20,17,12,29.40
2018,06,20,17,13,29.30
2018,06,20,17,14,29.30
2018,06,20,17,15,29.20
2018,06,20,17,16,29.20
2018,06,20,17,17,29.10
2018,06,20,17,18,29.00
2018,06,20,17,19,29.00